Location: Casilda
(33.0440°S, 61.1680°W)
Time: 18:27:05
(UTC-03:00)

ISS - Pass Details

Date: 16 October 2018
Orbit: 403 x 408 km, 51.6° (Epoch: 17 October)

Event Time Altitude Azimuth Distance (km) Brightness Sun altitude
Rises 05:25:39 0° 216° (SW) 2,349 -0.1 -12.4°
Reaches altitude 10° 05:27:59 10° 201° (SSW) 1,482 -1.0 -11.9°
Maximum altitude 05:30:49 25° 143° (SE) 873 -1.5 -11.4°
Drops below altitude 10° 05:33:36 10° 85° (E) 1,470 0.2 -10.8°
Sets 05:35:55 0° 71° (ENE) 2,324 1.0 -10.3°
